1487952000.78,12582,9.63,71518.5,-13.27,-16.79,-17.25,0,*63
1487952002.02,12583,9.56,71506.0,-13.27,-16.75,-17.79,0,*67
1487952003.26,12584,9.56,71526.5,-13.27,-17.25,-18.25,0,*62
1487952004.49,12585,9.63,71504.5,-13.27,-17.35,-18.11,0,*65
1487952005.72,12586,9.63,71488.0,-13.27,-17.35,-18.11,0,*66
1487952007.0,12587,9.63,71488.8,-13.29,-17.35,-17.97,0,*68
1487952008.27,12588,9.63,71618.8,-13.27,-17.25,-18.01,0,*68
1487952009.49,12589,9.56,71588.0,-13.27,-17.49,-18.17,0,*64
1487952010.73,12590,9.56,71648.0,-13.27,-17.63,-18.45,0,*63
1487952011.95,12591,9.56,71444.0,-13.27,-18.11,-18.73,0,*6D
1487952013.22,12592,9.56,71410.8,-13.29,-17.93,-18.69,0,*6E
1487952014.49,12593,9.56,71420.5,-13.29,-17.79,-18.59,0,*68
1487952015.73,12594,9.63,71546.0,-13.33,-17.73,-18.49,0,*6F
1487952017.0,12595,9.56,71546.0,-13.29,-17.55,-18.41,0,*69
1487952018.26,12596,9.63,71546.8,-13.29,-17.63,-18.41,0,*6F
1487952019.52,12597,9.56,71466.8,-13.29,-17.69,-18.31,0,*63
1487952020.77,12598,9.56,71434.3,-13.33,-17.69,-18.45,0,*64
1487952022.02,12599,9.63,71446.3,-13.29,-17.63,-18.25,0,*62
1487952023.31,12600,9.56,71460.8,-13.29,-17.55,-18.01,0,*62
1487952024.58,12601,9.63,71514.0,-13.29,-17.55,-18.11,0,*62
1487952025.86,12602,9.63,71522.0,-13.33,-17.45,-18.07,0,*6C
1487952027.12,12603,9.56,71524.0,-13.33,-17.59,-18.21,0,*64
1487952028.39,12604,9.56,71500.3,-13.29,-17.69,-18.31,0,*6A
1487952029.66,12605,9.63,71510.3,-13.29,-17.69,-18.31,0,*6B
1487952030.94,12606,9.56,71548.3,-13.33,-17.69,-18.31,0,*63
1487952032.2,12607,9.56,71530.5,-13.33,-17.59,-18.49,0,*6E
1487952033.45,12608,9.63,71470.3,-13.33,-17.87,-18.73,0,*6B
1487952034.71,12609,9.56,71458.8,-13.33,-17.97,-18.79,0,*61
1487952035.97,12610,9.63,71542.3,-13.29,-17.83,-18.59,0,*65
1487952037.22,12611,9.56,71516.8,-13.33,-17.87,-18.65,0,*64
1487952038.46,12612,9.56,71528.8,-13.33,-17.83,-18.65,0,*63
1487952039.71,12613,9.63,71474.5,-13.33,-17.87,-18.65,0,*66
1487952040.97,12614,9.63,71476.8,-13.33,-17.83,-18.59,0,*6A
1487952042.21,12615,9.63,71572.5,-13.33,-17.69,-18.45,0,*62
1487952043.51,12616,9.63,71498.3,-13.33,-17.55,-18.31,0,*6D
1487952044.8,12617,9.63,71412.0,-13.33,-17.55,-18.35,0,*68
1487952046.07,12618,9.56,71606.5,-13.33,-17.59,-18.45,0,*6C
1487952047.31,12619,9.63,71532.3,-13.33,-17.73,-18.65,0,*67
1487952048.55,12620,9.56,71564.3,-13.33,-17.69,-18.49,0,*68
1487952049.81,12621,9.56,71552.0,-13.29,-17.55,-18.41,0,*65
1487952051.08,12622,9.56,71584.3,-13.33,-17.59,-18.45,0,*65
1487952052.32,12623,9.63,71592.3,-13.33,-17.69,-18.49,0,*6B
1487952053.58,12624,9.63,71588.3,-13.29,-17.69,-18.59,0,*66
1487952054.79,12625,9.63,71474.0,-13.35,-17.83,-18.65,0,*61
1487952056.01,12626,9.56,71518.3,-13.35,-17.87,-18.65,0,*66
1487952057.25,12627,9.56,71500.5,-13.35,-18.01,-18.79,0,*6B
1487952058.49,12628,9.63,71504.8,-13.37,-18.07,-18.69,0,*61
1487952059.74,12629,9.63,71452.8,-13.35,-17.83,-18.31,0,*6C
1487952060.98,12630,9.63,71492.3,-13.35,-17.69,-18.31,0,*60
1487952062.22,12631,9.56,71492.3,-13.35,-17.59,-18.17,0,*66
1487952063.46,12632,9.56,71510.0,-13.37,-17.73,-18.07,0,*6E
1487952064.75,12633,9.56,71500.3,-13.37,-17.63,-17.93,0,*6C
1487952065.99,12634,9.63,71520.5,-13.35,-17.55,-17.69,0,*69
1487952067.25,12635,9.63,71610.5,-13.35,-17.55,-17.25,0,*60
1487952068.55,12636,9.63,71552.0,-13.37,-17.45,-17.03,0,*64
1487952069.76,12637,9.63,71566.0,-13.35,-17.31,-16.83,0,*6D
1487952071.0,12638,9.63,71568.0,-13.35,-17.31,-16.65,0,*6A
1487952072.25,12639,9.63,71598.3,-13.35,-16.83,-16.09,0,*69
1487952073.49,12640,9.63,71566.3,-13.35,-16.83,-16.23,0,*6F
1487952074.71,12641,9.63,71574.0,-13.35,-16.55,-16.03,0,*67
1487952075.98,12642,9.56,71580.8,-13.37,-16.55,-16.27,0,*60
1487952077.26,12643,9.63,71588.8,-13.37,-16.41,-16.09,0,*68
1487952078.5,12644,9.63,71574.8,-13.35,-16.31,-15.99,0,*60
1487952079.77,12645,9.63,71596.3,-13.37,-16.17,-15.95,0,*6B
1487952080.99,12646,9.63,71612.0,-13.35,-16.03,-15.95,0,*6F
1487952082.21,12647,9.63,71620.5,-13.35,-15.95,-15.95,0,*62
1487952083.47,12648,9.56,71626.3,-13.37,-15.99,-16.13,0,*6E
1487952084.76,12649,9.63,71564.8,-13.37,-16.13,-16.27,0,*69
1487952085.97,12650,9.56,71516.0,-13.35,-16.03,-16.37,0,*63
1487952087.26,12651,9.63,71482.5,-13.37,-15.81,-16.13,0,*6F
1487952088.53,12652,9.63,71586.3,-13.35,-15.81,-16.23,0,*6D
1487952089.79,12653,9.63,71622.8,-13.37,-15.67,-16.31,0,*65
1487952091.01,12654,9.56,71660.0,-13.35,-15.67,-16.41,0,*67
1487952092.24,12655,9.56,71680.0,-13.37,-15.95,-16.89,0,*6D
1487952093.51,12656,9.63,71712.5,-13.35,-16.27,-17.25,0,*61
1487952094.73,12657,9.63,71640.3,-13.35,-16.83,-17.69,0,*66
1487952095.97,12658,9.63,71630.8,-13.35,-17.11,-17.69,0,*63
1487952097.2,12659,9.56,71626.0,-13.37,-17.31,-17.73,0,*69
1487952098.47,12660,9.63,71606.8,-13.37,-17.11,-17.87,0,*6A
1487952099.72,12661,9.56,71576.5,-13.37,-17.49,-18.07,0,*61
1487952100.96,12662,9.56,71604.8,-13.37,-17.31,-17.87,0,*6A
1487952102.21,12663,9.56,71572.0,-13.37,-17.31,-17.93,0,*6E
1487952103.48,12664,9.63,71626.3,-13.37,-17.35,-17.93,0,*6D
1487952104.73,12665,9.63,71606.0,-13.35,-17.45,-18.11,0,*6C
1487952105.99,12666,9.63,71644.5,-13.37,-17.79,-18.21,0,*61
1487952107.21,12667,9.56,71602.5,-13.35,-17.73,-18.07,0,*6C
1487952108.5,12668,9.63,71636.3,-13.37,-17.93,-18.01,0,*69
1487952109.76,12669,9.63,71582.3,-13.37,-18.11,-17.93,0,*69
1487952111.03,12670,9.63,71634.0,-13.37,-18.01,-17.49,0,*67
1487952112.26,12671,9.63,71610.3,-13.37,-17.87,-17.31,0,*68
1487952113.53,12672,9.63,71492.5,-13.37,-17.59,-16.89,0,*6A
1487952114.77,12673,9.56,71552.0,-13.35,-16.97,-16.65,0,*68
1487952116.01,12674,9.63,71562.8,-13.37,-16.97,-16.83,0,*65
1487952117.27,12675,9.63,71518.3,-13.37,-17.11,-16.97,0,*6E
1487952118.54,12676,9.63,71510.5,-13.37,-17.03,-16.83,0,*6B
1487952119.79,12677,9.63,71466.8,-13.37,-16.83,-16.59,0,*64
1487952121.02,12678,9.63,71506.8,-13.37,-16.45,-16.45,0,*6C
1487952122.27,12679,9.56,71508.0,-13.37,-16.45,-16.55,0,*6C
1487952123.54,12680,9.63,71600.8,-13.37,-16.27,-16.59,0,*62
1487952124.84,12681,9.63,71596.3,-13.41,-16.51,-17.07,0,*69
1487952126.09,12682,9.63,71546.8,-13.37,-16.59,-17.35,0,*62
1487952127.36,12683,9.63,71568.0,-13.37,-16.55,-17.79,0,*67
1487952128.6,12684,9.63,71506.0,-13.37,-16.83,-18.21,0,*69
1487952129.87,12685,9.63,71556.3,-13.41,-17.17,-18.73,0,*62
1487952131.13,12686,9.63,71568.3,-13.37,-17.79,-19.47,0,*6E
1487952132.38,12687,9.56,71546.3,-13.41,-18.45,-19.91,0,*65
1487952133.62,12688,9.63,71514.0,-13.37,-18.65,-20.05,0,*6E
1487952134.89,12689,9.56,71524.8,-13.41,-18.89,-19.95,0,*6F
1487952136.13,12690,9.56,71574.0,-13.41,-19.03,-20.05,0,*67
1487952137.38,12691,9.56,71554.3,-13.41,-19.03,-19.95,0,*65
1487952138.62,12692,9.56,71572.5,-13.41,-19.03,-19.91,0,*62
1487952139.87,12693,9.63,71584.8,-13.41,-19.07,-19.91,0,*67
1487952141.12,12694,9.56,71572.5,-13.41,-19.07,-19.91,0,*60
1487952142.38,12695,9.63,71594.0,-13.37,-19.03,-19.85,0,*61
1487952143.63,12696,9.63,71584.3,-13.37,-19.13,-19.91,0,*66
1487952144.91,12697,9.56,71546.3,-13.41,-19.31,-19.95,0,*62
1487952146.18,12698,9.63,71592.0,-13.37,-19.31,-19.99,0,*60
1487952147.47,12699,9.56,71612.0,-13.41,-18.89,-19.65,0,*61
1487952148.71,12700,9.56,71558.5,-13.41,-19.03,-19.75,0,*62
1487952149.98,12701,9.56,71628.0,-13.41,-19.17,-19.81,0,*6D
1487952151.26,12702,9.56,71604.0,-13.41,-19.23,-20.05,0,*6F
1487952152.5,12703,9.56,71630.0,-13.43,-19.51,-20.15,0,*68
1487952153.77,12704,9.63,71578.0,-13.43,-19.57,-20.19,0,*65
1487952155.0,12705,9.56,71486.0,-13.43,-19.71,-20.43,0,*6F
1487952156.24,12706,9.63,71526.5,-13.43,-19.65,-20.29,0,*65
1487952157.51,12707,9.56,71458.5,-13.43,-19.57,-20.19,0,*66
1487952158.73,12708,9.56,71490.8,-13.43,-19.71,-20.29,0,*6E
1487952159.98,12709,9.63,71526.3,-13.45,-19.51,-20.09,0,*69
1487952161.2,12710,9.63,71510.0,-13.43,-19.51,-20.09,0,*67
1487952162.44,12711,9.63,71562.8,-13.45,-19.51,-19.99,0,*63
1487952163.73,12712,9.56,71456.5,-13.45,-19.65,-20.15,0,*69
1487952164.97,12713,9.56,71482.3,-13.47,-19.71,-20.15,0,*6F
1487952166.22,12714,9.56,71480.3,-13.47,-19.57,-19.99,0,*62
1487952167.47,12715,9.56,71438.0,-13.47,-19.57,-20.09,0,*60
1487952168.74,12716,9.56,71468.3,-13.49,-19.61,-19.99,0,*6B
1487952169.99,12717,9.56,71512.5,-13.47,-19.65,-19.99,0,*60
1487952171.21,12718,9.56,71526.5,-13.47,-19.71,-20.09,0,*69
1487952172.43,12719,9.63,71578.8,-13.47,-19.71,-20.09,0,*68
1487952173.68,12720,9.63,71576.0,-13.45,-19.71,-20.09,0,*60
1487952174.92,12721,9.56,71524.8,-13.47,-19.65,-19.99,0,*65
1487952176.17,12722,9.56,71470.0,-13.49,-19.71,-20.05,0,*62
1487952177.41,12723,9.56,71476.3,-13.47,-19.65,-19.99,0,*67
1487952178.63,12724,9.56,71426.0,-13.47,-19.75,-20.05,0,*6E
1487952179.87,12725,9.56,71428.0,-13.47,-19.51,-19.85,0,*6B
1487952181.18,12726,9.56,71462.3,-13.49,-19.27,-19.61,0,*6D
1487952182.43,12727,9.63,71488.3,-13.47,-19.13,-19.57,0,*60
1487952183.74,12728,9.63,71478.8,-13.49,-19.27,-19.61,0,*63
1487952185.02,12729,9.63,71554.3,-13.49,-19.17,-19.57,0,*64
1487952186.26,12730,9.56,71532.0,-13.49,-19.17,-19.47,0,*6D
1487952187.51,12731,9.56,71580.5,-13.47,-19.07,-19.41,0,*65
1487952188.75,12732,9.56,71552.3,-13.49,-19.17,-19.47,0,*6F
1487952190.0,12733,9.63,71538.3,-13.47,-19.23,-19.51,0,*60
1487952191.3,12734,9.63,71498.3,-13.49,-19.27,-19.61,0,*6E
1487952192.54,12735,9.63,71504.8,-13.47,-19.37,-19.85,0,*6A
1487952193.82,12736,9.56,71488.0,-13.49,-19.27,-19.47,0,*68
1487952195.06,12737,9.63,71550.0,-13.47,-19.03,-19.27,0,*67
1487952196.33,12738,9.63,71470.3,-13.49,-19.17,-19.41,0,*63
1487952197.59,12739,9.56,71480.5,-13.47,-18.89,-19.23,0,*6E
1487952198.87,12740,9.56,71440.8,-13.47,-19.27,-19.41,0,*61
1487952200.11,12741,9.63,71494.5,-13.47,-19.03,-19.27,0,*66
1487952201.36,12742,9.63,71530.5,-13.49,-19.17,-19.47,0,*68
1487952202.64,12743,9.56,71508.0,-13.49,-19.17,-19.57,0,*68
1487952203.92,12744,9.63,71546.0,-13.49,-19.17,-19.57,0,*6F
1487952205.16,12745,9.63,71528.3,-13.47,-19.07,-19.27,0,*66
1487952206.38,12746,9.56,71540.0,-13.47,-19.07,-19.17,0,*66
1487952207.65,12747,9.56,71586.0,-13.49,-18.93,-19.17,0,*65
1487952208.87,12748,9.56,71608.5,-13.47,-19.07,-19.13,0,*6C
1487952210.09,12749,9.63,71618.5,-13.47,-19.03,-19.13,0,*69
1487952211.33,12750,9.56,71642.5,-13.49,-18.83,-19.13,0,*66
1487952212.56,12751,9.63,71652.5,-13.47,-18.89,-19.03,0,*62
1487952213.83,12752,9.63,71658.3,-13.49,-18.99,-19.27,0,*68
1487952215.1,12753,9.63,71654.5,-13.49,-19.07,-19.27,0,*6F
1487952216.33,12754,9.56,71660.0,-13.47,-19.03,-19.23,0,*66
1487952217.58,12755,9.56,71666.3,-13.47,-18.93,-19.13,0,*6C
1487952218.82,12756,9.56,71672.3,-13.49,-19.07,-19.17,0,*69
1487952220.07,12757,9.63,71662.8,-13.49,-19.07,-19.17,0,*68
1487952221.34,12758,9.56,71670.0,-13.49,-18.93,-19.13,0,*6F
1487952222.57,12759,9.63,71682.0,-13.47,-18.89,-19.03,0,*6A
1487952223.83,12760,9.63,71682.8,-13.49,-18.93,-19.07,0,*61
1487952225.06,12761,9.56,71674.3,-13.49,-18.83,-19.07,0,*61
1487952226.33,12762,9.56,71678.8,-13.49,-18.83,-18.93,0,*6E
1487952227.57,12763,9.63,71678.5,-13.49,-18.69,-18.83,0,*6A
1487952228.8,12764,9.56,71658.0,-13.49,-18.65,-18.79,0,*64
1487952230.04,12765,9.63,71598.8,-13.49,-18.69,-18.83,0,*6C
1487952231.28,12766,9.63,71616.3,-13.49,-18.79,-18.79,0,*6B
1487952232.56,12767,9.63,71684.0,-13.49,-18.55,-18.55,0,*6A
1487952233.8,12768,9.56,71662.8,-13.49,-18.49,-18.41,0,*6D
1487952235.06,12769,9.63,71660.0,-13.49,-18.55,-18.25,0,*63
1487952236.3,12770,9.63,71610.8,-13.49,-18.41,-18.21,0,*6A
1487952237.6,12771,9.56,71654.3,-13.49,-18.35,-18.01,0,*6A
1487952238.89,12772,9.56,71552.8,-13.49,-18.35,-17.79,0,*69
1487952240.16,12773,9.63,71620.5,-13.47,-18.31,-17.45,0,*6D
1487952241.43,12774,9.63,71564.0,-13.49,-18.07,-17.17,0,*66
1487952242.69,12775,9.63,71640.0,-13.49,-17.79,-16.89,0,*67
1487952243.96,12776,9.63,71610.0,-13.49,-17.35,-16.69,0,*62
1487952245.2,12777,9.63,71614.3,-13.47,-16.97,-16.65,0,*68
1487952246.47,12778,9.63,71618.8,-13.49,-17.03,-16.75,0,*64
1487952247.71,12779,9.56,71568.8,-13.49,-16.97,-16.83,0,*60
1487952248.95,12780,9.63,71604.3,-13.49,-16.97,-16.89,0,*6C
1487952250.17,12781,9.56,71642.3,-13.47,-16.97,-16.79,0,*6C
1487952251.41,12782,9.56,71586.3,-13.47,-17.11,-16.79,0,*60
1487952252.65,12783,9.56,71530.8,-13.47,-17.25,-16.97,0,*66
1487952253.89,12784,9.56,71508.3,-13.47,-17.21,-16.93,0,*61
1487952255.14,12785,9.56,71598.8,-13.47,-17.07,-16.55,0,*6E
1487952256.38,12786,9.63,71564.5,-13.47,-16.97,-16.51,0,*61
1487952257.62,12787,9.56,71548.0,-13.47,-16.97,-16.17,0,*62
1487952258.86,12788,9.56,71542.3,-13.47,-16.51,-16.03,0,*62
1487952260.13,12789,9.56,71576.3,-13.47,-16.23,-16.09,0,*6C
1487952261.41,12790,9.56,71602.3,-13.47,-16.17,-16.09,0,*63
1487952262.65,12791,9.63,71582.3,-13.47,-16.37,-16.09,0,*60
1487952263.95,12792,9.63,71574.3,-13.49,-16.23,-16.09,0,*68
1487952265.2,12793,9.63,71564.3,-13.47,-16.03,-16.09,0,*65
1487952266.44,12794,9.56,71596.8,-13.47,-16.03,-16.17,0,*6D
1487952267.72,12795,9.56,71590.5,-13.47,-16.09,-16.17,0,*66
1487952268.96,12796,9.56,71576.3,-13.47,-16.23,-16.37,0,*6F
1487952270.22,12797,9.56,71570.3,-13.47,-16.23,-16.51,0,*6E
1487952271.46,12798,9.56,71624.8,-13.47,-16.69,-16.83,0,*60
1487952272.76,12799,9.56,71644.5,-13.45,-17.11,-17.07,0,*60
1487952274.0,12800,9.56,71648.3,-13.47,-17.25,-16.97,0,*62
1487952275.27,12801,9.56,71638.0,-13.49,-17.25,-16.97,0,*6D
1487952276.48,12802,9.56,71614.3,-13.47,-17.31,-16.93,0,*61
1487952277.76,12803,9.56,71632.8,-13.49,-17.17,-16.59,0,*6C
1487952279.03,12804,9.56,71634.0,-13.47,-17.07,-16.17,0,*6E
1487952280.27,12805,9.56,71632.3,-13.47,-16.97,-16.23,0,*60
1487952281.54,12806,9.56,71650.3,-13.47,-16.69,-15.89,0,*61
1487952282.78,12807,9.56,71638.5,-13.47,-16.23,-15.63,0,*6A
1487952284.03,12808,9.63,71604.3,-13.47,-16.09,-15.49,0,*65
1487952285.28,12809,9.56,71618.8,-13.47,-15.75,-15.35,0,*67
1487952286.5,12810,9.56,71618.0,-13.43,-15.53,-15.53,0,*6F
1487952287.77,12811,9.56,71686.3,-13.45,-15.63,-15.81,0,*64
1487952289.04,12812,9.56,71674.0,-13.45,-15.53,-15.89,0,*6C
1487952290.31,12813,9.56,71670.3,-13.47,-15.89,-16.23,0,*6B
1487952291.53,12814,9.56,71658.5,-13.47,-16.37,-16.55,0,*6B
1487952292.79,12815,9.56,71662.5,-13.45,-16.37,-16.23,0,*69
1487952294.04,12816,9.56,71658.0,-13.47,-16.37,-16.17,0,*6F
1487952295.28,12817,9.56,71634.3,-13.47,-16.23,-16.03,0,*6E
1487952296.5,12818,9.63,71640.0,-13.47,-16.03,-16.03,0,*63
1487952297.77,12819,9.63,71650.0,-13.47,-15.81,-16.09,0,*61
1487952299.03,12820,9.56,71672.8,-13.47,-16.17,-16.51,0,*6A
1487952300.33,12821,9.56,71706.0,-13.45,-16.65,-16.69,0,*67
1487952301.56,12822,9.56,71740.3,-13.45,-16.93,-16.93,0,*68
1487952302.82,12823,9.63,71738.5,-13.45,-17.11,-16.97,0,*66
1487952304.1,12824,9.56,71722.0,-13.43,-17.25,-17.07,0,*68
1487952305.4,12825,9.56,71690.5,-13.45,-17.41,-17.07,0,*6D
1487952306.68,12826,9.63,71694.3,-13.47,-17.45,-17.11,0,*6F
1487952307.94,12827,9.56,71702.0,-13.47,-17.45,-17.25,0,*69
1487952309.22,12828,9.56,71676.3,-13.47,-17.41,-17.11,0,*65
1487952310.49,12829,9.63,71686.3,-13.47,-17.45,-17.11,0,*60
1487952311.79,12830,9.63,71668.5,-13.49,-17.45,-17.03,0,*65
1487952313.06,12831,9.56,71688.0,-13.45,-17.21,-16.83,0,*63
1487952314.32,12832,9.56,71662.0,-13.45,-17.25,-16.93,0,*65
1487952315.57,12833,9.56,71640.0,-13.47,-17.25,-16.79,0,*62
1487952316.78,12834,9.56,71568.5,-13.47,-17.31,-16.79,0,*60
1487952318.05,12835,9.56,71614.0,-13.49,-17.03,-16.59,0,*6C
1487952319.32,12836,9.56,71542.5,-13.49,-16.83,-16.23,0,*6B
1487952320.59,12837,9.56,71614.0,-13.49,-16.59,-16.23,0,*6D
1487952321.84,12838,9.63,71508.3,-13.47,-16.55,-16.09,0,*68
1487952323.11,12839,9.56,71532.8,-13.49,-16.55,-16.23,0,*6F
1487952324.35,12840,9.56,71512.0,-13.47,-16.27,-15.95,0,*64
1487952325.6,12841,9.56,71544.5,-13.47,-16.17,-15.63,0,*6F
1487952326.88,12842,9.56,71618.5,-13.47,-16.09,-15.39,0,*6C
1487952328.18,12843,9.63,71566.3,-13.49,-16.09,-15.43,0,*6E
1487952329.42,12844,9.63,71578.8,-13.47,-15.75,-15.21,0,*6B
1487952330.65,12845,9.56,71604.0,-13.47,-15.63,-15.29,0,*65
1487952331.88,12846,9.63,71654.3,-13.47,-15.53,-15.29,0,*65
1487952333.1,12847,9.63,71644.3,-13.47,-15.49,-15.29,0,*6F
1487952334.36,12848,9.56,71650.3,-13.47,-15.21,-15.21,0,*66
1487952335.6,12849,9.56,71644.5,-13.47,-15.29,-15.21,0,*6F
1487952336.85,12850,9.56,71630.5,-13.47,-15.21,-15.29,0,*67
1487952338.13,12851,9.56,71654.8,-13.45,-15.21,-15.35,0,*69
1487952339.42,12852,9.56,71672.8,-13.45,-15.21,-15.39,0,*66
1487952340.71,12853,9.63,71682.5,-13.45,-15.21,-15.39,0,*67
1487952341.96,12854,9.63,71662.3,-13.43,-15.29,-15.39,0,*6E
1487952343.21,12855,9.63,71662.5,-13.45,-15.29,-15.53,0,*65
1487952344.47,12856,9.56,71668.3,-13.45,-15.35,-15.67,0,*6C
1487952345.76,12857,9.56,71682.0,-13.45,-15.39,-15.89,0,*61
1487952346.98,12858,9.56,71666.3,-13.43,-15.53,-15.95,0,*69
1487952348.2,12859,9.63,71686.0,-13.43,-15.67,-15.95,0,*6F
1487952349.43,12860,9.56,71692.3,-13.43,-15.81,-16.03,0,*61
1487952350.7,12861,9.56,71686.5,-13.43,-15.89,-15.89,0,*69
1487952351.97,12862,9.56,71668.5,-13.43,-16.09,-16.09,0,*6A
1487952353.25,12863,9.56,71652.5,-13.45,-16.09,-16.03,0,*67
1487952354.52,12864,9.63,71656.0,-13.43,-15.89,-15.81,0,*64
1487952355.76,12865,9.63,71660.5,-13.41,-15.75,-15.63,0,*68
1487952357.0,12866,9.56,71644.8,-13.45,-15.67,-15.67,0,*68
1487952358.21,12867,9.56,71644.8,-13.43,-15.63,-15.67,0,*6B
1487952359.46,12868,9.56,71626.0,-13.43,-16.03,-16.09,0,*6A
1487952360.73,12869,9.56,71598.8,-13.45,-15.95,-16.09,0,*61
1487952361.99,12870,9.56,71538.5,-13.45,-15.95,-16.51,0,*64
1487952363.2,12871,9.56,71594.3,-13.43,-15.95,-16.55,0,*67
1487952364.47,12872,9.56,71604.5,-13.45,-16.17,-16.83,0,*60
1487952365.69,12873,9.56,71634.0,-13.43,-16.37,-16.93,0,*64
1487952366.95,12874,9.56,71594.3,-13.43,-16.23,-16.69,0,*63
1487952368.25,12875,9.63,71604.5,-13.45,-16.65,-17.07,0,*6F
1487952369.52,12876,9.56,71630.3,-13.45,-16.51,-16.83,0,*66
1487952370.76,12877,9.56,71614.0,-13.45,-16.55,-16.93,0,*62
1487952372.0,12878,9.56,71626.8,-13.43,-16.65,-16.97,0,*6C
1487952373.25,12879,9.56,71662.3,-13.45,-16.55,-16.97,0,*68
1487952374.51,12880,9.56,71650.5,-13.45,-16.79,-17.25,0,*68
1487952375.75,12881,9.56,71668.3,-13.43,-16.79,-17.25,0,*6F
1487952377.05,12882,9.56,71596.0,-13.45,-16.69,-17.07,0,*6B
1487952378.3,12883,9.56,71658.3,-13.47,-16.65,-16.97,0,*6C
1487952379.59,12884,9.56,71534.5,-13.45,-17.07,-17.55,0,*63
1487952380.88,12885,9.56,71466.3,-13.45,-17.07,-17.41,0,*67
1487952382.15,12886,9.56,71606.5,-13.45,-16.69,-16.97,0,*67
1487952383.39,12887,9.56,71598.8,-13.45,-16.83,-16.93,0,*66
1487952384.63,12888,9.56,71590.0,-13.45,-16.97,-16.97,0,*68
1487952385.84,12889,9.56,71594.5,-13.43,-16.97,-16.83,0,*6A
1487952387.09,12890,9.56,71594.3,-13.45,-16.97,-16.55,0,*6F
1487952388.38,12891,9.56,71608.0,-13.45,-16.69,-16.27,0,*6A
1487952389.65,12892,9.63,71614.8,-13.47,-16.65,-16.17,0,*64
1487952390.92,12893,9.56,71618.3,-13.47,-16.23,-16.17,0,*67
1487952392.2,12894,9.63,71620.3,-13.47,-16.09,-16.09,0,*67
1487952393.44,12895,9.56,71574.5,-13.47,-16.27,-16.37,0,*67
1487952394.71,12896,9.56,71550.5,-13.47,-16.17,-16.17,0,*65
1487952395.98,12897,9.56,71560.0,-13.49,-15.99,-15.81,0,*63
1487952397.22,12898,9.56,71596.0,-13.49,-15.95,-15.95,0,*65
1487952398.48,12899,9.63,71600.5,-13.49,-15.99,-16.13,0,*65
1487952399.78,12900,9.56,71574.3,-13.49,-16.13,-16.23,0,*66
1487952401.04,12901,9.56,71522.5,-13.49,-15.99,-16.23,0,*66
1487952402.33,12902,9.56,71518.0,-13.49,-16.09,-16.13,0,*6C
1487952403.6,12903,9.56,71508.3,-13.49,-15.95,-16.13,0,*6B
1487952404.89,12904,9.63,71524.8,-13.53,-15.85,-16.13,0,*66
1487952406.16,12905,9.56,71532.5,-13.53,-15.57,-15.95,0,*65
1487952407.42,12906,9.56,71468.8,-13.53,-15.95,-16.31,0,*65
1487952408.69,12907,9.56,71516.3,-13.49,-16.23,-16.55,0,*63
1487952409.99,12908,9.56,71548.0,-13.49,-16.13,-16.27,0,*6A
1487952411.26,12909,9.56,71546.3,-13.47,-15.89,-16.17,0,*66
1487952412.53,12910,9.63,71534.0,-13.49,-16.23,-16.59,0,*69
1487952413.8,12911,9.56,71544.3,-13.49,-16.41,-17.03,0,*62
1487952415.07,12912,9.56,71520.8,-13.49,-16.45,-17.03,0,*65
1487952416.36,12913,9.63,71578.3,-13.49,-16.69,-17.03,0,*6A
1487952417.64,12914,9.56,71530.5,-13.49,-16.75,-17.11,0,*63
1487952418.87,12915,9.63,71568.8,-13.49,-16.83,-17.31,0,*69
1487952420.14,12916,9.56,71542.0,-13.49,-16.97,-17.45,0,*6C
1487952421.43,12917,9.63,71526.3,-13.49,-17.11,-17.59,0,*6F
1487952422.68,12918,9.63,71530.3,-13.47,-17.21,-17.69,0,*6E
1487952423.94,12919,9.63,71536.0,-13.49,-17.35,-17.93,0,*61
1487952425.19,12920,9.56,71522.5,-13.53,-17.49,-17.87,0,*6E
1487952426.48,12921,9.63,71484.3,-13.49,-17.45,-17.93,0,*6D
1487952427.75,12922,9.56,71446.5,-13.49,-17.49,-17.93,0,*62
1487952429.01,12923,9.56,71502.5,-13.53,-17.31,-17.79,0,*63
1487952430.23,12924,9.56,71446.3,-13.55,-17.35,-17.69,0,*67
1487952431.46,12925,9.56,71420.8,-13.55,-17.31,-17.55,0,*6D
1487952432.7,12926,9.56,71440.0,-13.53,-17.31,-17.49,0,*65
1487952433.93,12927,9.56,71424.3,-13.53,-16.97,-17.31,0,*66
1487952435.2,12928,9.56,71478.8,-13.55,-17.07,-17.41,0,*60
1487952436.44,12929,9.63,71434.3,-13.55,-17.21,-17.49,0,*6D
1487952437.68,12930,9.56,71498.0,-13.55,-17.35,-17.41,0,*68
1487952438.96,12931,9.63,71512.5,-13.55,-17.07,-17.07,0,*6A
1487952440.23,12932,9.63,71542.8,-13.55,-17.17,-17.07,0,*68
1487952441.5,12933,9.63,71460.5,-13.53,-17.11,-16.75,0,*6D
1487952442.73,12934,9.56,71454.3,-13.55,-16.93,-16.51,0,*61
1487952443.99,12935,9.56,71494.0,-13.55,-16.31,-16.13,0,*6E
1487952445.21,12936,9.56,71482.0,-13.55,-16.03,-15.63,0,*68
1487952446.42,12937,9.56,71454.8,-13.55,-15.99,-15.75,0,*6E
1487952447.69,12938,9.63,71568.8,-13.55,-15.57,-15.43,0,*66
1487952448.95,12939,9.56,71520.5,-13.55,-15.57,-15.43,0,*67
1487952450.2,12940,9.63,71534.5,-13.55,-15.43,-15.49,0,*66
1487952451.47,12941,9.56,71552.5,-13.55,-15.39,-15.43,0,*60
1487952452.76,12942,9.56,71570.8,-13.53,-15.39,-15.57,0,*60
1487952454.03,12943,9.56,71530.8,-13.55,-15.89,-16.17,0,*6B
1487952455.3,12944,9.56,71550.0,-13.53,-15.71,-16.13,0,*69
1487952456.59,12945,9.56,71506.8,-13.53,-15.81,-16.13,0,*67
1487952457.86,12946,9.56,71558.0,-13.53,-16.09,-16.55,0,*65
1487952459.13,12947,9.56,71474.5,-13.53,-16.41,-17.17,0,*6F
1487952460.34,12948,9.56,71434.8,-13.55,-16.79,-17.69,0,*64
1487952461.58,12949,9.56,71486.3,-13.55,-17.03,-17.69,0,*69
1487952462.85,12950,9.56,71514.3,-13.55,-17.03,-17.63,0,*6B
1487952464.09,12951,9.56,71498.3,-13.55,-17.35,-17.79,0,*64
1487952465.35,12952,9.56,71524.5,-13.55,-17.63,-17.97,0,*64
1487952466.65,12953,9.56,71514.3,-13.57,-17.55,-17.93,0,*66
1487952467.92,12954,9.56,71510.3,-13.55,-17.41,-17.79,0,*62
1487952469.21,12955,9.63,71560.0,-13.57,-17.63,-17.93,0,*65
1487952470.48,12956,9.56,71570.3,-13.57,-17.63,-17.83,0,*67
1487952471.76,12957,9.56,71620.5,-13.57,-17.55,-17.83,0,*63
1487952473.03,12958,9.56,71628.0,-13.57,-17.55,-17.83,0,*6C
1487952474.3,12959,9.56,71608.0,-13.57,-17.79,-18.07,0,*60
1487952475.52,12960,9.56,71688.5,-13.59,-17.69,-17.87,0,*62
1487952476.81,12961,9.56,71462.8,-13.57,-17.79,-17.93,0,*69
1487952478.09,12962,9.63,71554.8,-13.57,-17.79,-18.07,0,*68
1487952479.36,12963,9.63,71554.3,-13.57,-17.55,-17.69,0,*60
1487952480.6,12964,9.56,71626.3,-13.57,-17.31,-17.49,0,*67
1487952481.87,12965,9.56,71600.0,-13.57,-17.49,-17.63,0,*61
1487952483.14,12966,9.56,71618.0,-13.57,-17.55,-17.69,0,*65
1487952484.41,12967,9.56,71610.5,-13.57,-17.69,-17.93,0,*6E
1487952485.64,12968,9.56,71618.3,-13.59,-17.83,-17.83,0,*6A
1487952486.88,12969,9.63,71614.5,-13.59,-17.73,-17.59,0,*63
1487952488.19,12970,9.63,71606.8,-13.57,-17.41,-17.07,0,*6F
1487952489.43,12971,9.56,71598.5,-13.59,-16.89,-17.03,0,*61
1487952490.71,12972,9.56,71604.5,-13.59,-17.07,-17.07,0,*61
1487952491.93,12973,9.56,71492.0,-13.59,-16.83,-16.93,0,*61
1487952493.17,12974,9.56,71422.3,-13.59,-16.69,-16.97,0,*66
1487952494.41,12975,9.56,71486.0,-13.59,-16.97,-17.55,0,*69
1487952495.65,12976,9.56,71516.8,-13.59,-17.55,-17.73,0,*61
1487952496.88,12977,9.56,71570.0,-13.59,-17.87,-17.87,0,*64
1487952498.1,12978,9.56,71648.8,-13.59,-17.73,-17.83,0,*64
1487952499.39,12979,9.56,71582.3,-13.61,-17.55,-17.55,0,*61
1487952500.68,12980,9.56,71600.8,-13.61,-17.41,-17.55,0,*62
1487952501.96,12981,9.56,71532.5,-13.59,-17.45,-17.59,0,*60